Terug naar catalogus

STARLINK-36156

ActiefCommunicatieVLEO
NORAD 67006·PAYLOAD·🇺🇸 United States

Gelanceerd Dec 10, 2025 vanaf Vandenberg Space Force Base

Loading…

Volgende Passages (komende 24 uur)

TLE

VersSource: CelesTrak SupGP

Epoch: Sep 14, 2026, 21:34 UTC

1 67006C 25293D   26257.89909722 -.00044140  00000+0 -37001-2 0  2572
2 67006  70.0019 337.5436 0003473 270.1818 169.3131 14.98341457    14

Volg STARLINK-36156 in realtime met AllMySat

Download on the App Store